DEJRM EDRJ-EDDR

Flight info

Callsign DEJRM
Flight time N/A
Altitude
Route
Aircraft F260

Departure

Time 2026-04-17 16:34
Airport Saarlouis-Düren Airfield (EDRJ)

Arrival

Time N/A
Airport Saarbrücken Airport (EDDR)
Time Latitude Longitude Altitude Speed Heading
2026-04-17 16:34 49.32077 6.83128 2672 ft 139 kts 109°
2026-04-17 16:34 49.31783 6.84519 2640 ft 138 kts 103°
2026-04-17 16:34 49.31551 6.85955 2602 ft 137 kts 103°
2026-04-17 16:34 49.31296 6.87333 2628 ft 133 kts 102°
2026-04-17 16:35 49.31148 6.88724 2653 ft 130 kts 94°
2026-04-17 16:35 49.31017 6.90083 2646 ft 130 kts 99°
2026-04-17 16:35 49.30840 6.91457 2585 ft 133 kts 99°
2026-04-17 16:35 49.30616 6.92872 2510 ft 137 kts 104°
2026-04-17 16:36 49.30389 6.94254 2516 ft 134 kts 103°
2026-04-17 16:36 49.30152 6.95654 2515 ft 135 kts 106°
2026-04-17 16:36 49.29851 6.97004 2527 ft 134 kts 109°
2026-04-17 16:36 49.29713 6.98372 2615 ft 128 kts 78°
2026-04-17 16:37 49.30127 6.99533 2672 ft 126 kts 46°
2026-04-17 16:37 49.30765 7.00517 2637 ft 132 kts 46°
2026-04-17 16:37 49.31415 7.01500 2640 ft 133 kts 45°
2026-04-17 16:37 49.31880 7.02700 2645 ft 134 kts 77°
2026-04-17 16:38 49.31682 7.04113 2533 ft 142 kts 123°
2026-04-17 16:38 49.30895 7.04925 2532 ft 138 kts 164°
2026-04-17 16:38 49.29962 7.05267 2472 ft 138 kts 162°
2026-04-17 16:38 49.29038 7.05712 2347 ft 143 kts 162°
2026-04-17 16:39 49.28109 7.06169 2379 ft 135 kts 160°
2026-04-17 16:39 49.27260 7.06770 2297 ft 135 kts 148°
2026-04-17 16:39 49.26452 7.07522 2213 ft 135 kts 148°
2026-04-17 16:39 49.25648 7.08241 2150 ft 134 kts 150°
2026-04-17 16:40 49.24830 7.08900 2093 ft 133 kts 150°
2026-04-17 16:40 49.24087 7.09752 2049 ft 131 kts 133°
2026-04-17 16:40 49.23653 7.10874 2089 ft 112 kts 107°
2026-04-17 16:40 49.23517 7.11973 2114 ft 99 kts 98°
2026-04-17 16:41 49.23406 7.12955 2002 ft 91 kts 98°
2026-04-17 16:41 49.23321 7.13904 1881 ft 89 kts 99°
2026-04-17 16:41 49.23136 7.14768 1777 ft 83 kts 132°
2026-04-17 16:41 49.22596 7.15009 1606 ft 82 kts 179°
2026-04-17 16:42 49.22047 7.14896 1578 ft 79 kts 192°
2026-04-17 16:42 49.21611 7.14411 1465 ft 81 kts 239°
2026-04-17 16:42 49.21517 7.13589 1307 ft 80 kts 271°
2026-04-17 16:42 49.21505 7.12732 1164 ft 79 kts 264°
2026-04-17 16:43 49.21483 7.11932 1054 ft 65 kts 266°
2026-04-17 16:43 49.21464 7.11368 1052 ft 50 kts 264°
2026-04-17 16:43 49.21453 7.10556 1159 ft 91 kts 267°
2026-04-17 16:43 49.21448 7.09524 1420 ft 109 kts 268°
2026-04-17 16:44 49.21480 7.08322 1723 ft 116 kts 282°
2026-04-17 16:44 49.21994 7.07437 2048 ft 118 kts 341°
2026-04-17 16:44 49.22832 7.07366 2047 ft 123 kts
2026-04-17 16:44 49.23430 7.08105 2077 ft 116 kts 72°
2026-04-17 16:45 49.23497 7.09342 2064 ft 116 kts 87°
2026-04-17 16:45 49.23524 7.10573 2061 ft 113 kts 88°
2026-04-17 16:45 49.23547 7.11724 2077 ft 106 kts 88°
2026-04-17 16:45 49.23455 7.12835 2058 ft 103 kts 113°